Location: Bilsen
(53.7722°N, 9.8765°E)
Time: 08:43:34
(UTC+00:00)

Lacrosse 5 - Pass Details

Date: 18 February 2020
Orbit: 715 x 724 km, 57.0° (Epoch: 21 March)

Event Time Altitude Azimuth Distance (km) Brightness Sun altitude
Exits shadow 03:47:39 56° 176° (S) 858 2.1 -25.2°
Drops below altitude 10° 03:51:59 10° 134° (SE) 2,206 4.7 -24.6°
Sets 03:54:22 0° 131° (SE) 3,125 5.6 -24.2°
